Location: Unspecified
(38.0989°N, 0.6729°W)
Time: 20:57:27
(UTC+02:00)

Envisat - Visible Passes

Search period start: 25 June 2017 00:00
Search period end: 05 July 2017 00:00
Orbit: 764 x 766 km, 98.2° (Epoch: 25 June)

Date Brightness Start Highest point End Pass type
(mag) Time Alt. Az. Time Alt. Az. Time Alt. Az.
25 Jun 5.2 23:07:34 10° SW 23:11:22 21° W 23:15:11 10° NW visible
26 Jun 3.9 22:29:34 10° S 22:34:27 48° W 22:39:23 10° NNW visible
27 Jun 3.0 21:52:41 10° SSE 21:57:44 74° ENE 22:02:49 10° N visible
27 Jun 5.7 23:35:44 10° WSW 23:37:15 11° W 23:38:45 10° WNW visible
28 Jun 4.9 22:55:57 10° SSW 23:00:12 27° W 23:04:28 10° NW visible
29 Jun 3.5 22:18:20 10° S 22:23:21 62° W 22:28:24 10° NNW visible
30 Jun 5.5 23:23:14 10° SW 23:26:02 15° W 23:28:52 10° WNW visible
01 Jul 4.5 22:44:28 10° SSW 22:49:03 34° W 22:53:39 10° NNW visible
02 Jul 3.2 22:07:11 10° S 22:12:15 80° WSW 22:17:22 10° NNW visible
03 Jul 5.3 23:11:18 10° SW 23:14:51 19° W 23:18:26 10° NW visible
04 Jul 4.1 22:33:06 10° S 22:37:55 43° W 22:42:46 10° NNW visible
